Погода в Сосновоборске

Россия / Пензенская область     53°17′56″N   46°14′49″E
темп.,
°C
ветер,
м/с
пор.,
м/с
влажн.,
%
обл.,
%
осадки,
мм/ч
давл.,
гПа
погр.,
м
4 марта, чт
чт400:00−10зюз389641 0.0 1011183
03:00−8зюз5129564 0.1 1010371
06:00−3зюз51195100 0.2 1007648
09:00−2зюз71292100 0.6 1005970
12:000зюз81494100 0.3 10021048
15:000зюз81495100 0.5 10021072
18:000зюз81489100 0.1 10011112
21:00−1зюз61393100 0.4 10011082
5 марта, пт
пт500:00−1зюз51294100 0.3 1000679
03:00−2зюз51195100 0.6 1000616
06:00−1з4996100 0.7 1001556
09:00−3с2595100 1.4 1004367
12:00−1ссз358899 0.3 1006706
15:00−2сз358295 0.5 1008882
18:00−7сз239244 0.1 101022
21:00−10з129446 0.1 101321
6 марта, сб
сб600:00−10зюз229696 0.0 101323
03:00−10зюз239798 0.0 101455
06:00−12зсз2397100 0.0 101447
09:00−9сз2493100 0.0 1015235
12:00−7ссз4687100 0.0 1015565
15:00−6ссз467979 0.0 1014776
18:00−13сз36910 0.0 1015126
21:00−16ссз22930 0.0 101720
7 марта, вс
вс700:00−17зсз22960 0.0 101720
03:00−18зюз22950 0.0 101720
06:00−16юз379658 0.0 1016166
09:00−10юз5119377 0.2 1015443
12:00−6юз71186100 0.1 1012956
15:00−6юз71479100 0.1 10091098
18:00−6юз81683100 0.0 10061171
21:00−5юз91892100 1.4 10031339
8 марта, пн
пн800:00−4зюз81594100 1.0 10011128
03:00−9з389099 1.4 1003280
06:00−13юз339148 0.0 100453
09:00−8ююз498239 0.0 1003356
12:00−4ююз589389 0.3 1000756
15:00−4зюз8148894 1.0 10011449
18:00−9з6148571 0.3 1004981
21:00−10з6148886 0.3 1008838